Flag for Trinidad and Tobago Weather past 2 weeks in San Fernando, Trinidad and Tobago

Now
79 °F

Passing clouds.


Feels Like: 82 °F
Forecast: 78 / 85 °F
Wind: No wind

Location: Piarco International Airport - Trinidad

Current Time: Jul 24, 2014 at 11:58:28 PM

Latest Report: Jul 24, 2014 at 11:00 PM


Visibility: N/A

Pressure: 29.95 "Hg

Humidity: 79%

Dew point: 72 °F

Location of San FernandoLocation

Historic Weather in San Fernando — Graph

°F

San Fernando temperature yesterday

Maximum temperature yesterday: 91 °F (at 12:00 PM)
Minimum temperature yesterday: 77 °F (at 12:00 AM)
Average temperature yesterday: 84 °F

Past Weeks' High & Low Weather Summary

 TemperatureHumidityPressure
High91 °F (Jul 13, 1:00 PM)100% (Jul 10, 3:00 AM)30.07 "Hg (Jul 10, 3:00 AM)
Low73 °F (Jul 18, 2:00 PM)52% (Jul 13, 1:00 PM)29.89 "Hg (Jul 10, 4:00 PM)
Average81 °F80%29.98 "Hg
* Reported Jul 9 10:00 PM — Jul 24 10:00 PM, San Fernando, Weather by CustomWeather, © 2014

Note: Actual official high and low records may vary slightly from our data, if they occured in-between our weather recording intervals... More about our weather records

Advertising

San Fernando weather history for previous 24 hours

 ConditionsComfort  
Time TempWeatherWind HumidityBarometerVisibility
10:00 PM
Jul 24
79 °FPassing clouds.No wind84%29.95 "HgN/A
9:00 PM81 °FSmoke.No wind79%29.98 "HgN/A
8:00 PM81 °FSmoke.3 mph84%29.95 "HgN/A
7:00 PM82 °FPassing clouds.9 mph74%29.92 "HgN/A
6:00 PM86 °FPassing clouds.12 mph66%29.89 "HgN/A
5:00 PM88 °FPassing clouds.15 mph62%29.89 "HgN/A
4:00 PM90 °FScattered clouds.16 mph59%29.89 "HgN/A
3:00 PM91 °FScattered clouds.16 mph56%29.89 "HgN/A
2:00 PM91 °FScattered clouds.14 mph59%29.92 "HgN/A
1:00 PM91 °FPartly sunny.15 mph56%29.95 "HgN/A
12:00 PM91 °FPartly sunny.12 mph56%29.95 "HgN/A
11:00 AM90 °FScattered clouds.14 mph59%29.98 "HgN/A
10:00 AM88 °FScattered clouds.12 mph66%29.98 "HgN/A
9:00 AM86 °FPassing clouds.14 mph70%29.98 "HgN/A
8:00 AM84 °FPassing clouds.8 mph74%29.95 "HgN/A
7:00 AM81 °FPassing clouds.No wind84%29.95 "HgN/A
6:00 AM75 °FPassing clouds.No wind94%29.92 "HgN/A
5:00 AM77 °FPassing clouds.No wind89%29.92 "HgN/A
4:00 AM77 °FPassing clouds.No wind89%29.92 "HgN/A
3:00 AM77 °FSmoke.No wind89%29.92 "HgN/A
2:00 AM75 °FPassing clouds.No wind94%29.92 "HgN/A
1:00 AM77 °FPassing clouds.No wind89%29.95 "HgN/A
12:00 AM79 °FPassing clouds.No wind84%29.95 "HgN/A
11:00 PM
Jul 23
79 °FPassing clouds.No wind89%29.98 "HgN/A
Weather by CustomWeather, © 2014

See weather overviewHow to use our weather pages